This demonstration page uses our WeatherBlox Daily Observations layout. Learn more.

Left ArrowRight Arrow

38.20091, -84.87328

Hourly Observations for April 14, 2020

Temp ( °F °C ) Dew Point ( °F °C ) Humidity (%) Winds ( mph kmh ) Pressure ( in mb ) Visibility ( mi km ) Precip ( " mm )
12:53 am 00:53 Mostly Cloudy 39 3.9 35 1.7 86 86 Calm 30.19 1022 10 16 0.00 0.00
1:53 am 01:53 Cloudy 41 5 30 -1.1 65 65 WNW 6 9 30.21 1023 10 16 0.00 0.00
2:53 am 02:53 Mostly Clear 40 4.4 31 -0.6 70 70 NW 5 7 30.20 1023 10 16 0.00 0.00
3:53 am 03:53 Cloudy 41 5 29 -1.7 62 62 NW 3 6 30.19 1022 10 16 0.00 0.00
4:53 am 04:53 Cloudy 41 5 28 -2.2 60 60 N 5 7 30.18 1022 10 16 0.00 0.00
5:53 am 05:53 Cloudy 40 4.4 28 -2.2 63 63 W 5 7 30.23 1024 10 16 0.00 0.00
6:53 am 06:53 Mostly Cloudy 37 2.8 29 -1.7 73 73 E 3 6 30.22 1023 10 16 0.00 0.00
7:53 am 07:53 Mostly Cloudy 37 2.8 31 -0.6 79 79 Calm 30.23 1024 10 16 0.00 0.00
8:53 am 08:53 Cloudy 40 4.4 28 -2.2 63 63 NNW 6 9 30.24 1024 10 16 0.00 0.00
9:53 am 09:53 Cloudy 41 5 20 -6.7 43 43 N 7 11 30.24 1024 10 16 0.00 0.00
10:53 am 10:53 Cloudy 42 5.6 17 -8.3 36 36 VRB 5 7 30.26 1025 10 16 0.00 0.00
11:53 am 11:53 Cloudy 44 6.7 18 -7.8 35 35 VRB 3 6 30.25 1024 10 16 0.00 0.00
12:53 pm 12:53 Mostly Cloudy 45 7.2 17 -8.3 33 33 VRB 5 7 30.23 1024 10 16 0.00 0.00
1:53 pm 13:53 Cloudy 44 6.7 20 -6.7 38 38 VRB 5 7 30.21 1023 10 16 0.00 0.00
2:53 pm 14:53 Cloudy 44 6.7 22 -5.6 41 41 WSW 6 9 30.21 1023 10 16 0.00 0.00
3:53 pm 15:53 Cloudy 45 7.2 24 -4.4 44 44 NW 7 11 30.19 1022 10 16 0.00 0.00
4:53 pm 16:53 Mostly Sunny 46 7.8 24 -4.4 42 42 VRB 7 11 30.16 1022 10 16 0.00 0.00
5:53 pm 17:53 Mostly Cloudy 47 8.3 22 -5.6 37 37 VRB 5 7 30.16 1021 10 16 0.00 0.00
6:53 pm 18:53 Mostly Cloudy 45 7.2 27 -2.8 49 49 SW 7 11 30.16 1021 10 16 0.00 0.00
7:53 pm 19:53 Sunny 45 7.2 16 -8.9 31 31 WNW 5 7 30.15 1021 10 16 0.00 0.00
8:53 pm 20:53 Clear 40 4.4 22 -5.6 49 49 WSW 5 7 30.16 1022 10 16 0.00 0.00
9:53 pm 21:53 Clear 37 2.8 23 -5 57 57 W 3 6 30.17 1022 10 16 0.00 0.00
10:53 pm 22:53 Clear 34 1.1 21 -6.1 59 59 W 3 6 30.18 1022 10 16 0.00 0.00
11:53 pm 23:53 Clear 32 0 20 -6.7 61 61 Calm 30.18 1022 10 16 0.00 0.00

Powered by AerisWeather